{"data":{"norad_id":66291,"epoch":"2026-05-24T20:44:13.462080Z","epoch_age_seconds":87024,"freshness":"FRESH","line1":"1 66291U 25247AC  26144.86404470  .00020121  00000+0  60509-3 0  9992","line2":"2 66291  53.1588 196.3857 0000927  77.7973 282.3133 15.34398288 32753","mean_motion":15.34398288,"eccentricity":9.27e-5,"inclination_deg":53.1588,"raan_deg":196.3857,"arg_perigee_deg":77.7973,"mean_anomaly_deg":282.3133,"bstar":0.00060509,"rev_number":3275,"period_min":93.847862791672,"perigee_km":462.07418227466,"apogee_km":463.34247499859,"semimajor_km":6840.8453286366,"source":"CELESTRAK","updated_at":"2026-05-25T13:38:21.165729Z"}}